Wind_Speed
26 27 28 29 29 29 29 29 29 27 21 13 9 11 13 11 3 4 2 5 7 8 7 6 8 2 4 3 3 4 3 3 5 5 5 5 4 4 4 4 4 5 6 7 7 6 5 8 5 6 7 5 9 5 7 7 7 7 6 5 10 8 6 5 8 8 9 13 13 12 13 10 7 8 9 8 9 8 6 7 6 6 7 7 6 4 1
25 26 27 28 29 28 28 28 26 25 22 17 15 14 14 13 6 3 2 5 7 7 6 5 4 3 3 3 0 1 2 4 5 5 7 6 6 6 5 4 5 5 6 6 8 7 4 6 6 6 6 3 7 3 5 5 7 5 5 6 8 6 5 5 7 7 7 9 8 6 7 8 6 7 9 10 10 9 8 7 6 6 8 9 9 5 2
24 25 27 27 28 28 27 27 24 22 19 17 16 15 14 13 7 1 4 5 9 8 6 8 4 5 2 3 1 3 3 3 4 6 5 6 8 8 5 6 7 7 8 6 8 8 5 5 6 5 6 1 6 4 5 4 6 4 8 9 9 6 6 6 7 7 7 7 5 6 7 6 6 9 12 13 12 11 9 6 6 6 7 9 9 4 1
24 25 26 27 28 28 28 27 23 20 17 15 15 13 12 11 5 2 4 5 8 6 4 7 6 4 1 1 1 2 1 5 3 4 3 5 7 9 6 7 8 7 7 7 8 8 5 4 6 6 7 4 4 6 3 4 3 6 7 10 9 5 7 8 9 9 10 10 11 13 13 11 11 12 13 13 13 14 10 6 6 5 6 9 7 5 6
23 24 25 26 28 28 28 28 24 19 15 14 15 12 10 8 4 4 2 1 3 1 0 5 6 4 3 2 2 3 5 3 4 2 4 6 6 7 4 4 7 7 8 7 8 9 9 7 8 8 8 7 5 4 6 4 2 5 4 10 8 6 7 10 13 14 14 16 17 18 17 16 16 16 16 16 16 16 13 10 8 5 6 8 3 5 8
22 23 24 25 27 28 28 28 26 19 15 15 15 12 8 7 4 5 5 4 3 3 3 6 7 4 4 4 2 3 4 4 3 4 5 6 6 5 2 2 5 7 8 7 6 8 10 8 7 8 7 8 9 9 12 9 4 5 6 9 5 6 8 9 12 15 16 17 18 18 17 17 18 18 18 18 18 17 16 15 14 10 10 9 4 1 3
21 22 24 25 26 27 28 28 27 21 16 16 16 13 12 12 8 7 9 7 4 4 4 5 5 4 4 3 2 4 5 5 4 5 5 5 6 6 6 5 8 8 7 6 6 6 7 6 6 8 9 9 9 7 10 10 3 1 4 5 4 5 6 8 12 14 16 17 17 18 18 17 18 19 19 19 19 18 17 17 18 17 15 14 13 8 2
21 22 23 24 26 27 28 28 28 25 18 15 17 16 14 14 11 10 14 10 4 3 4 4 4 1 1 1 3 4 5 6 6 4 4 6 6 6 8 9 10 9 7 6 6 6 8 7 7 10 9 8 8 6 5 8 8 7 6 5 5 5 5 8 10 10 13 16 16 16 17 17 18 18 18 19 18 18 18 17 16 16 17 15 11 5 5
20 21 22 24 25 26 28 27 28 28 22 16 18 18 16 12 9 9 12 8 3 3 3 3 4 1 2 2 5 4 4 7 7 3 4 6 7 7 9 10 9 9 7 5 6 9 9 9 11 12 11 9 9 8 7 9 10 9 8 6 6 6 6 8 9 9 10 12 14 16 15 16 17 17 17 18 17 15 14 10 7 11 11 8 6 5 5
19 20 21 22 23 24 26 27 28 28 25 21 20 20 19 13 7 9 11 6 2 4 2 1 2 3 4 5 5 4 5 7 7 4 4 4 5 7 8 10 8 7 6 7 11 12 12 14 15 15 15 15 14 13 13 14 11 8 8 7 6 6 6 7 7 8 9 12 14 15 14 12 12 9 9 11 9 8 9 8 12 15 13 9 6 4 6
18 19 20 21 22 23 24 26 27 28 27 25 22 20 22 18 11 12 13 7 3 3 2 4 5 4 5 6 4 3 5 5 6 5 4 4 7 7 8 9 6 4 7 11 13 15 16 17 18 18 17 17 18 17 16 17 14 11 9 6 6 7 7 7 6 7 9 12 14 13 10 9 7 6 12 13 12 12 11 10 13 13 11 9 7 8 10
17 18 19 19 20 22 22 23 24 26 26 23 20 18 21 18 12 12 12 7 3 2 3 5 6 5 6 7 5 5 6 6 6 6 6 6 8 8 6 7 6 6 10 14 14 15 16 17 17 17 18 18 17 17 16 15 14 13 11 8 7 8 7 6 6 7 7 9 10 9 8 6 6 13 15 15 15 15 11 10 14 15 12 10 10 12 14
17 17 18 18 19 20 21 21 22 23 23 22 20 19 20 17 12 11 11 8 4 5 5 4 6 7 8 7 6 6 5 4 4 5 4 4 7 7 6 7 8 10 13 15 14 14 12 11 10 11 13 13 13 14 15 14 12 12 12 10 8 7 7 6 5 6 7 7 7 7 8 3 13 17 15 14 15 14 11 8 13 15 12 11 11 11 13
16 16 16 17 17 18 19 19 20 20 21 21 20 19 19 18 16 14 11 7 5 8 7 3 5 8 8 7 8 7 4 2 2 2 1 4 6 7 7 8 9 10 12 12 12 10 7 6 7 7 7 7 7 8 8 8 9 9 7 7 6 5 5 5 5 5 6 7 7 8 10 5 11 14 13 13 13 13 11 6 8 14 14 13 11 10 12
15 16 16 16 16 17 18 18 18 18 19 20 19 18 18 18 17 14 10 7 7 6 9 8 8 9 9 7 7 7 5 2 1 2 2 2 5 5 5 7 9 9 10 9 8 6 5 5 6 5 5 4 2 4 3 3 7 6 2 4 6 5 4 4 5 5 6 8 8 8 9 6 5 11 13 15 16 16 13 7 3 10 14 15 13 11 13
15 15 15 15 15 15 16 17 17 17 18 18 17 17 18 18 15 11 8 7 8 4 8 11 10 9 8 6 5 6 6 5 6 5 2 3 3 4 6 9 9 7 8 8 6 5 5 5 5 5 5 4 5 4 4 6 7 6 2 4 6 6 4 4 5 6 6 7 8 7 6 2 6 11 15 17 18 18 14 6 1 7 13 14 13 13 14
15 15 15 14 14 14 15 15 16 16 17 18 17 17 18 18 15 12 8 7 9 5 8 11 10 8 7 6 4 6 7 7 7 6 3 1 3 4 7 11 9 5 6 8 5 4 5 5 6 7 3 6 5 5 5 6 7 6 6 5 5 6 4 4 6 6 5 7 8 6 3 3 8 13 14 18 19 16 11 5 1 7 12 11 11 13 13
15 15 14 13 12 13 13 14 15 15 16 17 16 16 16 16 14 12 8 7 9 5 9 11 10 8 8 7 6 7 8 7 7 6 6 4 3 5 9 11 8 4 5 6 4 4 5 5 6 7 3 4 3 4 5 6 6 6 7 7 6 6 5 5 7 7 6 6 6 4 2 3 9 14 15 18 17 10 5 4 4 9 13 11 10 11 10
15 15 14 12 11 12 12 12 14 14 14 16 15 13 14 15 14 12 9 8 8 6 7 9 9 8 8 7 7 6 5 5 5 6 6 3 6 9 11 6 4 6 6 5 5 4 5 5 5 6 4 1 4 4 5 6 5 5 6 6 6 6 5 5 7 7 5 4 4 4 2 2 9 13 14 14 10 4 2 5 8 10 12 12 11 10 10
15 14 13 11 10 10 11 11 13 13 13 15 15 13 12 15 16 12 9 9 9 7 6 9 8 8 8 8 8 8 6 6 7 6 5 6 9 12 9 2 2 7 6 5 5 4 4 6 6 4 5 4 4 2 5 5 4 5 5 5 5 5 5 5 5 5 5 5 4 4 2 3 11 12 9 8 5 2 2 6 9 9 8 9 9 9 10
14 12 12 11 10 9 10 10 11 12 12 13 13 12 9 11 15 14 10 8 8 7 5 8 7 6 6 7 7 6 6 7 8 7 7 8 10 8 5 3 5 6 5 5 6 3 2 4 5 3 4 3 2 3 5 5 4 3 2 4 4 4 4 5 3 3 4 5 5 3 3 6 11 10 5 3 4 5 5 7 9 9 6 6 8 9 10
12 11 12 11 10 9 9 9 10 11 11 11 12 11 7 9 14 14 9 6 6 7 7 7 6 4 4 6 7 6 5 4 5 6 7 9 8 5 4 5 5 5 6 7 5 3 3 3 3 4 5 4 4 5 6 5 3 1 0 3 2 0 2 5 4 3 4 5 6 6 5 8 11 9 6 7 9 9 8 9 11 9 7 7 9 10 11
11 11 12 11 10 9 8 9 10 10 10 10 11 10 8 11 15 13 8 6 7 9 8 6 6 3 1 4 8 8 5 4 3 3 3 6 7 4 2 6 6 4 6 6 5 6 7 5 4 4 4 4 4 5 5 5 4 4 3 3 3 3 4 5 4 5 6 6 6 7 8 10 12 10 9 9 10 12 11 10 10 10 9 9 10 12 13
10 11 11 11 10 9 8 8 9 10 9 10 11 10 10 13 16 14 10 7 8 9 6 6 5 1 2 4 7 7 4 2 3 3 3 4 6 4 4 8 8 5 7 7 5 6 6 5 5 5 4 3 4 5 5 4 3 4 5 5 3 5 7 6 5 5 6 5 4 8 12 14 14 12 10 9 10 11 12 12 12 11 12 13 12 13 15
10 11 11 11 10 9 8 8 8 9 9 9 10 10 9 10 14 16 14 10 9 9 6 4 4 3 4 5 3 2 3 3 3 4 3 3 5 6 6 8 7 6 7 6 5 7 6 5 5 5 4 3 2 4 5 4 4 5 6 6 4 4 5 6 7 6 6 5 8 14 18 17 14 12 11 11 12 13 14 14 14 14 15 15 14 14 16
9 10 11 11 11 9 8 8 7 8 8 8 10 9 6 7 14 17 17 14 10 8 8 2 5 4 4 3 1 2 4 3 3 3 4 5 5 5 5 5 4 4 5 6 6 6 5 4 4 5 4 3 3 5 5 6 7 6 5 7 10 9 6 7 8 9 7 5 9 16 17 13 12 15 15 15 16 17 17 17 16 17 18 18 16 14 15
9 11 11 11 11 10 8 8 8 7 7 9 11 9 4 7 13 17 18 19 11 4 6 5 5 4 4 2 2 4 3 2 2 3 5 6 7 6 5 5 4 5 7 7 7 6 6 5 4 5 6 6 7 7 7 8 8 6 4 7 13 10 6 5 7 7 5 6 10 12 9 7 12 18 20 20 19 19 19 19 19 18 18 19 19 17 16
10 11 11 10 11 11 9 8 8 7 8 10 10 7 6 9 10 11 14 17 11 4 7 11 11 9 6 1 1 2 1 1 3 3 4 5 6 7 7 6 6 7 8 7 6 5 5 6 6 6 7 8 8 6 6 8 8 5 3 5 8 5 6 8 7 4 5 9 13 12 8 10 17 21 22 22 22 19 19 20 20 20 20 19 19 20 19
10 11 10 10 11 10 9 9 8 6 8 9 8 7 5 4 4 8 12 16 12 7 9 13 12 8 4 0 1 2 2 1 2 3 4 4 5 7 7 7 7 8 9 9 8 6 7 8 8 8 8 7 6 5 5 7 6 3 4 7 8 7 9 10 9 8 9 12 15 14 12 15 21 22 22 22 22 20 19 19 20 21 20 17 16 18 19
10 11 10 10 11 10 9 8 7 7 7 6 7 5 0 5 8 11 15 17 12 7 7 8 7 4 2 1 1 2 3 2 3 4 3 3 4 6 6 7 8 8 9 9 8 7 8 9 9 10 9 7 5 4 4 6 5 2 3 7 9 9 9 10 10 10 12 14 16 16 16 19 22 22 21 19 19 20 20 21 20 21 20 19 19 19 20
10 11 11 10 10 9 9 7 6 7 7 6 6 5 2 3 6 13 17 16 11 5 5 8 10 9 5 5 2 2 3 3 5 5 4 3 4 4 5 6 7 7 8 10 10 9 9 9 10 11 10 6 3 4 6 7 5 3 3 7 8 8 9 11 12 12 13 15 17 18 19 19 19 19 20 21 21 21 22 23 23 22 22 22 22 23 23
11 12 11 10 8 8 8 7 5 5 6 7 5 3 3 3 8 12 15 13 8 5 5 8 9 8 3 6 4 1 3 3 4 4 4 4 3 3 5 6 8 8 9 10 10 9 8 10 11 10 7 4 3 4 6 6 4 6 9 10 9 8 10 11 12 13 13 15 17 19 19 19 20 20 22 24 25 24 23 23 22 22 22 22 23 23 23
11 12 11 9 8 6 6 5 4 3 5 9 6 1 2 7 12 13 13 10 6 4 6 7 7 6 1 3 4 3 1 2 4 4 4 5 4 5 7 8 9 10 10 9 9 8 8 10 9 6 4 4 4 5 5 3 1 5 11 11 9 9 12 13 13 13 14 15 17 17 18 21 24 25 25 24 25 24 22 21 21 21 21 21 22 22 22
10 11 10 9 7 5 5 5 4 2 5 8 6 4 7 13 16 15 12 8 5 4 5 6 6 5 2 1 3 3 4 5 5 3 2 4 3 6 9 8 8 8 8 9 10 10 9 8 7 6 5 3 3 5 5 2 1 4 8 9 8 10 13 14 13 14 15 16 17 18 19 22 24 25 24 23 24 24 22 21 21 20 20 20 20 20 20
9 10 10 9 6 5 5 5 3 3 6 5 4 9 12 15 16 14 10 6 4 5 5 6 6 5 3 3 1 4 3 7 4 3 4 5 4 6 9 7 6 7 7 7 9 9 7 5 5 6 3 2 2 5 4 3 4 6 7 7 8 11 13 14 16 17 18 18 19 20 21 22 23 24 24 23 23 23 22 21 21 20 20 21 20 19 19
8 8 9 8 4 4 6 6 5 5 5 4 9 12 13 13 12 10 6 2 2 4 6 7 7 4 4 4 1 5 5 6 3 3 7 8 6 7 7 6 6 6 6 7 9 8 5 3 3 4 1 1 2 4 2 2 5 6 6 7 8 10 12 14 17 19 20 20 21 21 21 22 24 24 24 23 24 23 23 23 22 20 20 20 19 19 18
7 8 8 6 3 2 3 4 2 1 4 8 10 10 10 8 7 6 3 2 3 5 5 7 7 6 6 5 3 5 5 5 4 4 6 6 6 8 8 6 5 4 5 7 7 4 2 3 4 6 4 1 2 2 1 1 4 4 5 7 8 10 13 15 17 19 21 21 21 23 24 25 26 25 23 24 26 26 25 24 23 21 20 20 20 19 18
6 7 5 3 3 5 3 1 4 7 9 10 10 7 5 4 3 1 2 3 4 5 5 6 7 7 7 5 2 4 5 6 7 6 4 3 4 5 5 5 3 2 4 5 3 1 2 3 3 6 4 1 3 1 1 2 3 4 5 6 8 10 13 15 16 18 20 20 21 24 27 28 27 27 25 25 26 27 25 23 22 21 19 19 19 18 17
4 4 3 2 4 4 5 6 8 11 11 10 7 5 5 4 4 3 3 4 4 5 5 6 7 7 7 6 5 5 5 5 7 6 3 3 4 3 3 3 1 2 5 5 1 2 4 3 2 4 3 3 4 2 3 2 4 5 5 6 8 11 13 15 16 17 18 19 21 24 25 26 25 25 25 24 25 26 24 22 21 20 19 17 17 17 17
3 2 2 4 4 4 8 12 10 6 5 5 5 5 4 4 4 2 2 3 5 4 4 4 5 5 5 6 6 4 2 3 6 7 5 5 5 4 5 5 2 2 7 5 2 3 4 3 1 3 2 2 4 3 3 3 4 5 5 7 9 11 13 15 16 16 17 20 22 23 24 25 24 23 23 23 23 24 23 22 22 20 18 18 17 17 17
1 2 3 5 5 4 6 10 7 2 3 5 5 3 4 5 4 2 2 3 3 3 3 5 6 3 2 4 6 5 2 3 6 7 7 6 5 4 5 6 4 3 5 4 1 0 4 4 2 2 1 1 3 3 4 4 4 5 6 7 10 12 13 15 16 16 17 20 21 22 25 26 23 22 23 23 23 22 22 23 23 21 19 19 19 18 18
3 5 5 7 7 6 5 5 3 3 4 4 2 2 4 4 4 3 3 3 2 1 2 2 3 2 2 5 7 6 3 4 5 6 5 4 3 3 4 4 4 4 4 4 3 3 4 5 4 2 2 4 6 6 5 4 4 6 7 9 10 12 14 15 16 17 18 19 20 23 25 26 23 21 21 22 23 23 22 23 23 20 19 19 19 18 17
3 3 2 4 6 6 6 6 4 3 2 1 1 2 3 4 4 4 4 4 2 1 3 2 2 4 4 4 5 7 6 4 4 5 5 5 4 4 4 4 4 4 5 5 5 4 5 6 4 1 7 9 9 6 4 4 5 6 9 10 10 12 14 16 17 18 18 19 20 23 24 25 25 23 20 20 21 23 23 24 23 20 18 19 18 16 15
3 2 2 3 4 4 3 3 3 2 1 2 2 3 3 4 4 3 1 1 1 0 3 0 6 7 3 2 3 7 6 3 1 2 5 7 6 4 3 4 4 5 6 5 5 5 5 4 4 4 5 7 6 3 2 4 6 7 10 11 11 13 15 16 18 19 20 20 21 23 23 24 25 25 24 22 22 21 22 23 23 21 19 19 18 15 12
3 4 3 2 2 1 1 1 2 3 3 3 4 5 3 2 2 2 3 4 5 3 2 0 4 6 5 5 5 4 2 2 3 4 5 6 5 4 4 5 5 5 5 5 5 5 4 3 3 3 2 3 2 1 2 5 7 8 10 12 12 14 15 17 19 20 21 21 22 24 24 24 25 25 25 26 25 24 23 23 23 21 19 18 17 14 13
4 5 4 1 1 3 3 2 2 3 4 4 5 4 3 6 6 5 5 6 7 7 6 5 4 4 7 9 7 5 5 5 5 5 5 5 4 5 6 7 6 5 5 6 5 4 3 2 1 2 2 2 3 3 5 6 8 9 11 12 14 15 16 17 19 21 21 22 23 25 25 25 25 26 26 27 26 25 24 23 22 19 18 17 16 15 14
5 6 5 3 2 4 5 5 6 7 6 4 5 4 3 5 6 6 4 2 4 7 8 7 4 4 7 8 7 7 8 6 4 4 5 4 4 4 5 6 5 5 5 7 6 3 2 3 2 1 1 3 5 5 6 8 9 11 13 14 15 16 17 18 20 21 22 23 24 25 25 26 27 27 26 26 27 26 25 23 20 18 17 17 17 16 15
5 5 5 3 2 5 7 8 10 12 10 5 5 5 3 3 5 4 1 1 4 7 7 6 6 5 5 6 6 7 7 5 5 6 6 5 4 4 4 4 5 4 4 5 5 4 4 5 4 2 3 6 7 8 9 10 11 13 14 15 16 18 19 19 21 22 22 22 23 24 26 27 27 26 26 27 28 27 24 21 19 17 17 17 16 16 16
6 5 5 5 5 8 9 8 7 9 8 4 3 4 6 7 6 1 2 2 5 5 5 4 5 6 5 5 5 6 6 5 3 3 4 5 4 4 4 5 6 6 3 3 4 6 7 7 6 5 6 9 10 11 12 13 14 14 15 16 18 19 19 20 21 21 21 22 22 24 26 27 26 26 28 28 27 24 22 20 18 16 15 15 16 17 16
6 5 7 8 8 8 8 6 5 6 6 5 4 4 5 7 5 2 4 1 4 3 3 4 6 6 6 5 4 3 4 5 4 4 5 5 5 4 5 7 7 5 4 5 7 8 10 10 9 10 11 11 11 12 14 15 15 16 16 17 19 20 20 20 20 20 21 21 21 22 23 25 25 25 27 27 24 21 20 18 17 16 16 16 17 18 17
5 5 8 11 12 10 8 6 4 5 5 4 3 3 4 6 3 3 4 1 4 4 4 6 7 5 4 3 3 3 5 5 4 5 6 5 4 5 6 7 7 7 9 11 11 10 10 11 11 12 12 13 13 14 14 15 16 17 17 18 19 20 19 19 19 20 20 21 20 20 21 23 23 24 25 24 22 19 17 16 16 17 17 17 16 17 17
6 6 8 12 15 15 13 11 10 8 7 7 7 6 5 5 3 3 3 2 6 8 8 7 6 5 4 4 4 5 6 5 4 6 6 5 5 6 6 7 9 11 13 13 13 12 12 12 11 12 13 13 14 15 15 15 16 17 18 18 19 19 19 19 19 19 20 20 19 19 21 22 23 23 23 22 20 18 17 17 17 17 16 16 16 15 15
Wind_Direction
356 357 358 359 359 359 1 360 355 354 356 351 330 321 310 294 296 92 151 193 198 245 266 253 242 254 29 357 34 34 321 331 0 355 349 337 327 317 318 342 338 339 360 332 316 356 336 294 321 328 308 35 78 67 24 355 314 308 302 343 19 348 282 282 289 282 289 288 282 283 289 296 291 277 273 270 273 279 290 307 315 306 300 305 295 285 51
356 357 359 359 0 1 1 2 359 353 354 354 343 332 321 313 324 57 113 184 210 255 291 283 241 109 47 303 309 69 336 352 347 345 1 357 338 329 333 352 345 336 339 317 313 339 330 293 324 327 301 43 90 61 29 0 308 341 19 1 1 337 293 308 303 290 291 282 268 278 310 331 322 292 289 288 286 291 299 305 301 292 301 303 296 307 64
357 357 359 360 1 2 1 3 2 355 354 353 343 333 322 309 291 191 125 180 227 261 313 319 336 78 75 265 232 206 173 74 340 314 342 355 336 329 339 352 340 318 311 307 297 292 278 293 308 310 309 338 122 96 38 335 302 40 44 353 334 311 295 306 298 288 291 290 296 321 331 334 312 295 301 311 315 307 296 293 285 283 294 288 283 302 84
357 358 360 1 2 3 2 3 2 2 359 350 342 334 313 299 284 174 142 185 235 253 296 314 333 35 334 229 85 296 235 98 69 304 331 17 339 311 317 335 324 315 322 321 306 295 282 285 293 302 308 289 138 98 43 300 306 64 31 328 309 292 284 282 275 274 279 283 290 298 296 288 279 277 282 288 290 286 283 284 275 276 291 280 275 289 272
358 359 0 2 4 4 4 4 3 7 9 357 346 331 301 295 330 18 17 282 264 237 29 330 346 17 327 337 54 316 308 43 80 48 6 17 351 313 299 330 323 336 353 337 317 312 307 306 307 301 299 302 311 334 328 317 110 97 317 289 276 273 271 267 268 267 269 273 278 281 280 278 278 278 275 269 266 266 268 272 268 258 270 274 294 335 310
359 0 2 4 6 6 6 6 6 9 20 19 1 345 339 337 359 27 3 325 328 13 25 346 345 16 353 343 359 315 331 0 34 40 358 345 3 342 280 73 8 351 358 341 317 311 304 305 320 315 318 334 330 322 321 312 169 159 284 280 262 269 271 275 281 278 280 283 283 283 282 281 282 282 280 277 275 272 269 272 276 269 266 272 269 276 347
0 1 3 6 7 8 9 8 9 12 25 35 22 13 16 3 2 17 351 330 344 0 351 315 316 19 15 343 1 337 348 13 12 14 342 326 25 3 312 12 18 345 348 338 307 318 320 309 337 348 343 336 323 314 312 299 248 160 305 303 326 312 285 288 291 288 289 289 285 285 283 280 279 278 277 276 276 275 271 271 273 270 267 272 270 258 83
2 2 5 8 8 10 11 10 14 15 20 38 37 31 23 2 359 358 334 329 353 333 316 288 273 91 73 302 43 355 339 18 5 1 359 336 16 15 331 352 360 328 328 321 301 352 4 333 332 342 337 326 318 318 319 313 322 333 326 327 332 310 292 300 300 292 290 289 287 283 278 276 276 273 271 272 273 274 273 272 277 278 272 271 284 309 49
4 3 6 10 10 12 13 12 16 18 20 39 42 28 15 358 355 350 328 327 355 309 302 291 284 97 92 14 23 4 0 18 341 326 45 350 346 11 346 345 345 314 305 315 333 7 3 326 318 319 311 304 303 302 305 309 315 315 311 314 308 291 294 303 298 286 285 289 288 286 285 284 281 274 270 266 261 262 271 284 336 345 325 314 335 5 26
4 5 6 11 12 13 15 13 17 20 22 37 41 21 9 5 6 359 336 311 264 273 257 88 334 16 51 26 15 3 14 15 335 327 62 21 7 19 347 336 332 308 323 356 351 344 328 310 306 300 291 285 280 278 280 285 289 291 294 298 296 292 293 293 291 287 289 294 296 300 304 295 282 292 312 307 297 302 318 0 30 26 21 24 25 18 4
3 5 6 11 13 14 17 15 17 21 22 31 38 19 6 6 357 347 337 315 287 297 329 49 31 13 29 25 12 357 357 2 358 355 2 10 15 6 344 341 330 317 1 359 333 319 311 300 291 282 274 271 270 269 269 269 267 268 274 278 277 280 280 281 287 282 283 293 298 299 293 280 285 6 15 359 350 350 357 26 37 30 36 42 27 16 11
2 4 5 11 13 15 19 17 18 23 22 26 36 21 6 9 1 341 333 319 318 12 33 51 42 14 14 13 354 351 357 1 8 351 329 340 349 345 355 358 333 332 353 342 322 314 306 293 282 271 261 258 258 259 262 264 263 261 261 264 270 278 279 276 279 278 282 293 295 283 268 283 16 34 26 14 6 359 4 39 46 33 33 33 16 12 12
0 3 4 10 14 14 18 19 18 23 21 21 31 22 6 12 19 2 345 324 332 22 28 65 67 30 11 5 349 343 349 353 349 336 332 343 337 339 7 3 334 330 335 330 321 315 304 292 284 270 257 249 246 249 249 248 253 254 251 254 259 267 278 282 276 278 283 276 271 268 268 337 45 40 21 15 15 2 356 33 52 39 24 17 14 13 11
357 1 1 7 13 13 17 19 18 22 21 19 26 23 9 12 21 14 1 335 339 12 13 34 54 20 1 2 352 329 300 261 241 249 27 11 338 337 355 349 334 328 325 323 318 310 301 297 293 280 258 232 233 255 247 235 252 259 250 263 272 262 272 294 288 281 288 280 276 286 284 311 37 30 7 4 8 358 344 353 47 43 25 12 11 9 6
354 359 360 2 9 12 15 18 18 21 23 20 23 25 17 16 16 12 7 336 318 360 26 19 6 354 347 356 357 334 310 312 319 238 167 30 343 346 360 344 332 327 322 317 313 308 303 300 303 306 294 267 271 316 333 312 303 311 319 299 299 284 269 295 295 285 293 288 281 286 282 287 13 9 0 1 355 347 338 320 16 37 23 13 12 10 6
350 354 357 358 3 9 13 16 16 18 21 20 23 27 24 19 12 9 13 340 311 349 33 12 353 340 327 328 357 356 348 359 350 320 205 125 29 6 4 344 329 324 322 313 299 292 297 292 288 294 307 353 6 330 323 325 314 314 297 261 274 284 280 289 292 287 294 290 280 282 283 325 12 356 356 357 347 341 334 307 297 14 7 5 5 6 9
349 350 354 356 358 3 10 14 14 15 18 17 20 26 26 19 10 10 17 342 317 353 36 9 349 341 333 330 3 8 353 343 331 315 304 35 23 10 2 350 335 312 314 318 302 285 294 288 280 285 319 48 17 314 317 332 310 303 310 291 283 296 295 287 284 276 269 266 269 284 310 32 5 351 354 350 341 335 324 293 291 349 347 355 356 355 2
345 347 351 353 354 358 5 10 11 12 14 14 19 26 24 16 11 13 16 342 320 358 44 19 355 358 360 342 336 348 345 335 327 316 302 309 358 0 347 348 347 312 294 312 310 300 301 296 306 317 339 69 36 330 333 336 318 320 332 325 309 300 296 294 288 282 280 275 277 298 337 355 341 347 359 350 329 310 298 305 319 320 326 344 354 349 350
342 345 349 351 354 356 359 6 7 7 10 12 19 27 22 15 16 16 12 352 327 342 37 27 6 11 11 345 332 342 341 329 331 321 301 323 14 342 311 305 336 323 309 309 312 320 317 312 342 348 321 4 56 10 324 317 317 325 326 320 318 316 313 307 294 292 302 304 304 310 296 315 325 337 1 2 336 296 280 307 301 303 319 339 347 341 337
341 344 348 352 355 353 355 2 2 3 8 9 17 31 22 6 8 14 14 0 332 323 18 28 11 7 11 5 360 354 340 340 348 338 326 355 4 336 301 247 6 334 330 332 328 350 354 328 344 353 317 344 46 2 306 307 321 341 339 320 327 338 318 299 302 315 310 297 306 309 264 314 330 333 358 22 7 336 305 289 293 309 327 335 333 328 323
341 344 349 353 356 353 353 359 358 1 8 7 15 33 24 352 358 8 4 349 323 306 350 12 3 359 5 6 1 344 333 346 353 345 333 339 351 345 328 355 2 345 353 350 325 339 13 334 337 336 306 326 15 331 325 328 330 10 12 298 318 355 321 302 321 350 321 299 316 325 252 302 332 338 344 339 307 301 306 298 299 312 327 324 319 316 314
340 344 347 348 352 352 352 355 356 358 6 6 9 19 16 358 4 3 348 338 322 302 312 337 338 335 346 353 353 339 316 311 324 334 329 325 331 331 316 339 6 15 9 350 316 325 5 343 330 327 310 315 331 330 332 324 306 357 96 291 310 11 304 313 321 321 309 295 305 319 313 322 335 335 326 321 312 307 310 305 304 312 323 317 307 306 310
336 341 344 345 347 350 349 353 356 356 3 8 4 6 15 16 9 0 351 346 323 304 295 288 285 280 302 349 348 344 328 295 292 313 316 313 315 305 328 5 7 12 22 10 333 337 355 344 331 343 338 335 332 315 302 294 303 336 342 316 316 329 334 329 308 304 313 302 303 327 337 336 335 329 327 329 317 308 307 301 300 310 317 314 308 305 306
334 337 342 342 342 346 347 349 353 355 0 6 0 1 17 16 6 4 13 4 327 310 280 236 237 288 24 340 333 338 339 316 275 261 258 302 319 327 37 24 353 345 34 32 339 322 335 321 315 327 329 335 329 302 299 305 331 352 335 304 322 6 357 321 293 303 314 311 348 359 342 331 328 325 327 329 318 313 312 302 295 297 301 305 309 307 304
330 335 341 340 339 342 343 344 350 353 357 2 359 1 17 17 11 16 19 359 331 316 290 221 152 70 353 332 336 344 331 309 272 260 250 267 308 324 360 12 353 350 15 4 314 308 315 304 302 303 304 337 334 298 309 321 322 333 325 302 312 1 345 316 316 322 312 318 359 354 338 333 334 331 331 334 328 322 318 308 299 296 295 295 296 299 299
327 334 337 337 337 336 336 339 345 347 350 353 351 353 17 25 17 22 20 1 335 291 274 269 100 75 344 343 1 323 319 307 263 249 249 251 271 299 326 348 348 335 323 299 277 282 289 293 307 302 300 334 323 301 310 314 309 312 311 318 333 338 325 320 326 321 314 336 355 345 337 337 338 330 325 326 323 317 314 309 303 299 296 294 291 289 290
328 331 331 331 331 329 330 334 336 340 347 348 343 346 35 39 10 8 11 7 356 283 269 323 25 27 4 6 326 318 334 333 283 252 250 260 264 266 276 297 310 304 293 283 277 276 277 286 294 287 290 302 304 305 308 303 302 300 299 341 357 355 330 318 324 320 323 337 341 342 337 318 316 319 320 321 319 313 309 308 305 301 299 297 294 289 283
330 329 327 325 323 322 326 329 331 336 343 345 344 355 57 53 11 346 353 1 359 318 295 304 305 308 313 319 334 324 319 319 305 274 256 260 254 251 260 269 275 280 280 283 296 299 291 296 300 293 296 300 300 302 298 287 284 286 300 347 5 347 308 319 328 309 299 312 324 335 328 301 305 311 314 316 315 311 307 307 306 303 301 300 296 291 286
334 332 330 324 319 320 325 325 326 332 342 359 21 39 53 43 327 313 340 352 348 323 301 292 284 284 285 288 12 295 249 284 326 281 273 280 259 248 256 256 259 274 284 290 300 294 279 286 294 292 296 307 306 299 294 288 290 323 6 359 349 329 322 334 336 314 300 307 318 324 318 307 306 307 308 309 310 309 307 306 305 302 299 297 294 290 288
332 331 331 328 322 321 322 321 324 329 334 359 30 35 60 223 258 302 334 344 340 329 308 296 295 300 275 213 315 276 221 225 268 244 231 263 260 248 251 252 253 263 274 281 287 288 289 295 293 289 297 315 311 291 295 297 295 336 23 351 338 334 334 335 331 318 310 313 319 319 311 307 307 308 307 307 306 306 304 303 302 299 295 293 292 288 284
331 328 327 326 323 323 322 318 320 329 337 353 357 339 293 231 282 313 327 333 334 334 306 293 294 289 250 192 194 285 265 254 264 254 229 234 251 243 241 250 254 256 263 271 275 279 287 289 283 285 296 308 294 278 288 294 299 327 338 318 318 332 336 328 320 315 313 317 322 319 311 308 311 312 310 308 307 305 302 298 297 295 291 289 287 284 281
335 335 332 326 323 322 317 315 321 335 358 12 353 297 277 314 321 321 323 326 327 318 299 294 288 281 237 150 154 263 302 280 276 278 256 246 262 269 253 255 262 260 260 268 274 275 276 276 278 287 299 308 297 285 283 289 312 323 317 316 325 336 335 328 322 320 322 327 329 324 316 315 317 315 309 307 307 304 300 297 297 294 291 289 286 283 281
339 343 342 335 330 321 311 319 334 2 28 25 15 337 304 331 332 329 325 324 320 291 284 289 284 284 321 128 161 156 41 308 280 277 254 234 251 285 275 267 272 272 262 260 265 267 266 272 280 284 281 283 289 283 282 294 315 296 306 324 343 340 327 323 324 326 329 330 329 323 314 311 314 313 309 306 306 304 301 299 297 295 293 291 289 287 283
341 346 343 339 340 332 326 336 343 17 38 26 4 309 306 322 328 327 322 322 321 282 255 256 270 285 315 234 186 109 33 316 290 297 266 221 233 285 283 272 271 273 263 255 261 265 266 276 287 282 267 269 274 267 274 291 268 283 304 322 337 335 329 326 328 330 329 326 323 319 312 310 313 314 312 309 308 306 305 303 301 298 297 294 293 294 293
332 341 341 342 350 355 358 12 37 44 31 13 286 275 295 311 319 319 312 306 303 280 256 250 257 267 285 272 179 85 355 300 301 336 299 260 254 286 288 281 273 269 258 252 260 265 266 274 288 287 300 18 315 274 277 295 298 308 318 322 329 336 333 328 327 328 325 322 320 319 317 317 318 319 318 317 314 311 308 306 304 300 296 293 293 295 297
322 332 334 338 356 30 34 41 57 49 15 309 269 275 293 307 318 323 318 300 282 292 294 289 281 291 314 305 27 51 345 303 303 306 276 264 265 279 279 275 275 276 268 259 263 268 261 229 249 270 288 73 269 267 282 310 298 309 321 322 328 333 325 320 324 325 322 321 321 320 321 322 322 322 320 320 321 320 315 310 306 302 296 294 294 294 293
316 320 325 334 330 322 5 31 70 217 293 300 294 290 292 307 341 7 19 337 295 294 297 293 294 320 330 314 356 29 344 298 287 288 278 281 296 292 284 280 284 291 280 264 263 269 205 184 232 264 261 216 217 219 187 296 296 305 313 312 320 326 321 321 325 325 323 324 325 325 327 327 326 323 320 319 322 324 321 316 312 307 300 297 298 297 294
319 325 345 4 311 286 300 310 218 245 286 319 330 321 297 286 292 279 204 220 261 272 266 261 275 301 309 295 318 5 336 305 306 312 314 328 314 290 278 278 277 281 281 272 261 206 198 205 246 269 261 117 85 127 206 254 287 301 309 311 318 323 322 325 329 328 328 329 329 327 328 328 326 324 321 319 319 319 317 315 314 311 307 304 303 300 296
326 349 10 351 298 299 323 311 279 276 296 312 310 296 277 249 234 222 179 175 218 251 247 242 263 294 306 298 304 331 333 315 308 306 317 342 333 311 300 302 277 250 278 281 166 174 248 261 280 274 254 112 107 210 244 269 291 300 314 320 322 325 325 327 330 331 330 329 328 327 326 326 327 326 323 321 321 320 317 313 310 309 310 308 304 299 296
326 344 337 304 282 301 324 321 313 312 315 295 273 266 255 229 215 184 162 204 231 226 211 230 254 273 295 301 303 311 326 312 305 308 320 329 324 305 300 309 317 280 287 288 143 165 261 279 253 255 257 125 138 192 235 273 288 300 320 324 325 329 330 330 332 333 330 330 331 330 328 327 327 328 327 326 326 325 323 317 312 310 309 305 300 296 295
281 244 261 272 259 262 314 325 328 325 281 271 261 250 246 244 239 211 204 254 253 187 193 257 272 258 254 290 291 290 323 346 319 307 303 302 293 277 287 303 305 278 284 301 76 176 279 278 250 248 291 98 162 204 240 258 271 299 322 328 330 333 333 333 335 335 333 332 331 329 329 329 326 322 324 327 327 324 320 317 315 314 312 306 301 299 299
215 215 235 256 255 257 289 302 273 242 260 269 265 271 268 261 259 239 220 241 269 152 162 257 303 303 276 276 282 292 334 2 329 296 280 283 283 267 273 293 287 267 281 315 333 296 278 280 280 261 224 222 225 228 240 261 283 309 323 331 335 334 334 336 336 334 334 335 331 329 331 333 328 318 315 318 321 321 320 320 319 319 315 308 304 302 303
184 178 224 260 253 253 266 261 227 212 248 268 268 286 268 242 244 245 209 198 215 164 117 113 310 293 253 241 276 292 294 299 305 292 279 278 282 276 274 278 274 279 297 307 300 278 275 291 306 186 182 204 220 224 234 271 299 309 316 326 332 331 333 336 336 334 333 333 331 331 332 332 330 324 317 314 316 319 323 326 326 324 320 314 308 304 306
213 226 256 257 242 234 244 234 197 182 220 230 227 243 235 220 237 265 208 162 240 176 129 85 312 304 267 215 293 296 280 260 261 271 271 276 279 278 277 276 283 301 309 298 279 271 278 306 10 83 158 199 218 219 241 289 305 310 316 324 327 328 331 333 333 333 332 330 330 332 331 330 331 330 327 325 325 322 321 324 327 328 326 322 315 309 311
240 237 232 255 278 274 268 232 210 219 231 223 225 245 274 317 3 42 46 6 324 293 201 45 336 317 295 289 295 290 274 274 268 264 277 289 285 271 276 287 296 309 302 280 276 290 305 343 48 80 185 234 259 288 293 303 308 312 319 324 324 325 329 330 329 329 329 328 329 330 329 329 332 332 332 333 335 331 325 326 330 332 330 328 325 320 316
229 224 208 222 295 249 226 221 229 227 222 223 238 265 343 15 14 20 30 9 335 315 315 335 343 306 287 288 283 259 257 276 282 284 299 304 286 277 288 294 292 287 279 278 289 316 338 349 54 158 209 265 310 316 306 308 312 315 320 323 322 322 324 326 325 325 325 326 327 327 327 328 332 335 335 336 338 337 335 335 337 336 334 335 336 334 326
237 232 220 224 246 226 217 226 240 241 238 248 272 295 25 31 347 322 325 347 345 343 340 332 313 275 275 281 279 273 271 269 270 281 286 280 272 282 291 287 278 271 279 291 304 335 357 335 343 29 327 310 309 306 307 313 316 318 320 320 319 318 319 320 321 322 322 324 326 326 326 328 333 337 337 338 341 343 343 342 342 342 343 346 349 348 342
223 232 224 223 230 223 219 224 239 249 254 261 275 281 301 327 314 311 349 359 338 349 351 332 311 298 279 255 249 268 276 264 254 266 268 266 279 292 285 272 270 270 277 297 321 347 342 329 333 346 331 319 315 313 314 317 318 319 319 318 316 316 316 316 317 318 319 322 325 325 325 328 333 337 339 341 344 345 343 342 344 343 342 346 352 353 350
209 231 234 233 243 248 244 235 243 260 263 247 235 259 279 288 285 269 98 341 318 338 358 330 308 307 293 263 249 265 272 262 255 267 262 254 263 268 260 266 279 284 288 316 341 343 335 331 333 328 320 320 319 318 317 318 317 316 315 314 313 312 312 313 313 315 318 321 323 325 326 328 333 339 342 343 342 342 340 343 347 346 340 342 353 358 359
210 242 248 240 243 260 264 249 241 259 262 247 222 231 267 287 284 164 125 300 302 320 325 280 258 257 277 291 296 293 277 262 261 269 264 258 261 265 266 272 279 290 317 336 337 330 323 321 319 313 308 309 313 316 317 317 315 312 310 311 311 310 310 312 313 314 317 320 322 325 326 326 331 340 344 343 341 341 341 343 350 351 346 348 358 3 4
210 245 251 243 245 261 276 274 267 276 287 293 281 258 278 301 306 128 118 356 304 284 271 265 249 238 252 263 258 275 286 280 265 259 260 261 266 270 270 273 280 296 317 327 329 323 314 308 307 309 311 312 313 313 311 310 310 309 308 309 309 308 310 313 314 314 317 319 321 323 323 323 327 335 341 343 344 343 340 340 349 355 355 356 1 4 5
209 234 254 255 253 256 258 258 259 261 269 280 279 269 276 298 296 155 143 303 291 272 266 265 256 245 246 241 245 269 287 283 264 261 262 260 257 258 266 280 292 301 309 315 317 316 315 314 315 320 323 321 315 310 308 308 309 308 306 307 309 310 311 313 314 315 316 318 319 319 320 321 325 332 338 341 344 344 341 342 350 357 359 1 3 4 6
Height
1548 1545 1542 1539 1535 1532 1528 1525 1520 1517 1514 1511 1509 1508 1506 1503 1499 1499 1501 1501 1502 1502 1500 1494 1489 1488 1490 1489 1490 1492 1492 1491 1491 1490 1489 1489 1487 1486 1486 1487 1489 1489 1488 1489 1487 1487 1490 1487 1483 1485 1483 1480 1485 1485 1484 1486 1484 1485 1489 1486 1485 1488 1491 1498 1498 1486 1476 1467 1457 1454 1453 1456 1464 1465 1461 1464 1466 1465 1471 1477 1477 1480 1482 1478 1482 1492 1484
1548 1545 1543 1539 1536 1532 1529 1526 1523 1519 1515 1513 1511 1509 1507 1503 1499 1498 1500 1501 1501 1501 1500 1495 1489 1488 1491 1491 1492 1494 1495 1495 1495 1494 1494 1493 1492 1492 1490 1489 1491 1490 1488 1490 1490 1491 1495 1492 1485 1486 1486 1485 1485 1484 1485 1488 1486 1488 1493 1493 1493 1495 1495 1499 1505 1503 1495 1485 1477 1473 1468 1467 1473 1471 1463 1461 1461 1462 1467 1470 1474 1484 1485 1482 1489 1494 1484
1549 1546 1543 1540 1536 1533 1529 1526 1524 1520 1517 1515 1513 1511 1509 1505 1501 1498 1499 1501 1500 1498 1496 1493 1489 1491 1495 1496 1495 1495 1496 1497 1499 1497 1496 1496 1495 1496 1494 1492 1493 1491 1489 1491 1491 1488 1493 1495 1490 1487 1487 1484 1483 1485 1487 1489 1487 1489 1494 1493 1494 1499 1499 1500 1509 1518 1516 1508 1499 1492 1485 1478 1477 1474 1469 1467 1466 1467 1472 1476 1483 1490 1486 1480 1486 1490 1481
1549 1546 1544 1540 1537 1534 1530 1527 1524 1521 1519 1516 1513 1512 1510 1505 1501 1498 1497 1498 1497 1496 1495 1494 1492 1493 1497 1498 1497 1497 1497 1497 1499 1499 1498 1498 1498 1497 1496 1494 1495 1494 1493 1497 1497 1490 1488 1492 1492 1491 1491 1487 1484 1485 1488 1489 1488 1490 1493 1493 1494 1498 1499 1499 1504 1508 1508 1504 1496 1486 1484 1483 1482 1477 1473 1472 1472 1469 1472 1480 1487 1490 1487 1483 1479 1478 1475
1550 1547 1544 1541 1538 1534 1531 1528 1524 1522 1520 1517 1514 1512 1509 1505 1503 1501 1502 1501 1497 1496 1496 1496 1495 1496 1498 1500 1500 1501 1499 1497 1499 1500 1499 1499 1499 1497 1496 1496 1499 1500 1500 1503 1504 1497 1492 1493 1494 1494 1492 1488 1484 1485 1486 1487 1489 1490 1492 1493 1494 1499 1501 1497 1497 1496 1493 1490 1486 1479 1479 1481 1479 1476 1473 1471 1469 1467 1472 1480 1480 1481 1489 1490 1477 1471 1475
1550 1548 1545 1542 1539 1536 1532 1529 1525 1522 1520 1518 1516 1513 1510 1508 1506 1505 1507 1506 1503 1501 1502 1501 1499 1498 1500 1502 1502 1503 1503 1502 1503 1503 1500 1499 1500 1501 1500 1499 1500 1502 1503 1506 1507 1504 1500 1499 1498 1497 1495 1493 1492 1491 1487 1486 1488 1489 1490 1490 1490 1498 1501 1495 1493 1493 1488 1484 1482 1478 1477 1477 1475 1474 1473 1470 1468 1468 1472 1473 1469 1470 1481 1483 1472 1470 1478
1551 1549 1546 1543 1540 1537 1533 1530 1527 1523 1521 1520 1518 1516 1514 1513 1511 1509 1509 1508 1506 1506 1506 1504 1502 1502 1504 1505 1505 1506 1506 1506 1506 1505 1504 1503 1502 1505 1506 1503 1503 1503 1503 1507 1509 1507 1507 1507 1504 1501 1502 1502 1501 1499 1495 1490 1486 1487 1490 1489 1489 1496 1500 1494 1493 1494 1489 1485 1482 1478 1477 1478 1475 1473 1471 1469 1468 1466 1467 1467 1464 1464 1467 1467 1464 1468 1475
1552 1550 1547 1545 1542 1539 1535 1532 1529 1525 1522 1521 1520 1520 1520 1519 1518 1516 1513 1510 1507 1507 1506 1505 1503 1504 1506 1508 1508 1508 1508 1510 1509 1506 1509 1510 1507 1507 1509 1508 1507 1506 1504 1506 1508 1506 1508 1510 1508 1506 1507 1507 1504 1502 1501 1495 1490 1490 1492 1492 1493 1499 1500 1494 1493 1497 1493 1486 1481 1478 1477 1477 1475 1473 1469 1468 1468 1467 1466 1465 1463 1463 1463 1460 1461 1470 1479
1553 1551 1548 1546 1543 1540 1537 1534 1531 1528 1524 1522 1523 1523 1523 1524 1523 1522 1519 1514 1509 1508 1506 1504 1503 1504 1507 1510 1511 1510 1510 1512 1511 1508 1509 1512 1511 1511 1512 1511 1509 1507 1505 1507 1508 1506 1508 1510 1508 1507 1508 1508 1506 1504 1501 1498 1498 1498 1497 1497 1496 1499 1501 1496 1496 1502 1497 1486 1482 1479 1474 1473 1474 1472 1468 1466 1466 1466 1465 1465 1468 1471 1470 1466 1470 1481 1487
1554 1552 1549 1547 1545 1542 1540 1537 1534 1531 1528 1525 1525 1526 1525 1524 1523 1523 1522 1517 1510 1507 1504 1503 1506 1510 1511 1512 1512 1513 1513 1512 1512 1512 1511 1511 1512 1513 1513 1512 1512 1510 1508 1509 1510 1510 1510 1510 1508 1508 1507 1505 1504 1503 1501 1499 1501 1501 1500 1500 1499 1500 1503 1501 1502 1506 1500 1488 1484 1480 1478 1484 1484 1473 1467 1464 1463 1464 1465 1467 1472 1474 1475 1480 1487 1491 1488
1555 1553 1551 1548 1547 1544 1542 1540 1536 1534 1531 1528 1528 1529 1528 1526 1525 1524 1523 1519 1511 1505 1504 1507 1512 1514 1513 1513 1513 1513 1514 1513 1513 1516 1515 1512 1512 1515 1514 1513 1513 1512 1512 1513 1513 1512 1510 1509 1507 1506 1505 1503 1501 1501 1499 1497 1498 1498 1499 1500 1500 1500 1503 1502 1502 1506 1503 1492 1485 1485 1493 1500 1489 1469 1463 1466 1467 1470 1474 1476 1477 1477 1478 1485 1489 1487 1484
1556 1554 1552 1550 1548 1546 1543 1542 1539 1537 1535 1533 1532 1533 1531 1529 1529 1527 1526 1523 1514 1507 1508 1513 1516 1516 1514 1515 1516 1514 1515 1516 1516 1517 1518 1515 1515 1515 1515 1515 1516 1514 1513 1514 1513 1511 1509 1507 1504 1501 1499 1499 1497 1496 1497 1495 1494 1495 1495 1497 1500 1501 1502 1502 1501 1503 1501 1494 1493 1504 1509 1496 1478 1468 1467 1469 1469 1471 1475 1478 1480 1481 1483 1486 1486 1486 1486
1556 1555 1553 1551 1549 1548 1545 1544 1542 1540 1539 1537 1535 1535 1533 1531 1530 1529 1528 1526 1517 1510 1513 1515 1516 1518 1518 1517 1517 1517 1517 1518 1518 1518 1518 1518 1517 1516 1515 1516 1517 1516 1515 1514 1513 1511 1508 1504 1501 1498 1494 1492 1493 1493 1492 1492 1492 1492 1492 1493 1496 1500 1502 1502 1500 1501 1502 1499 1502 1510 1501 1480 1473 1478 1477 1475 1477 1477 1479 1484 1487 1487 1489 1490 1491 1490 1489
1557 1555 1554 1552 1550 1549 1547 1546 1544 1542 1541 1539 1537 1536 1535 1533 1531 1530 1530 1529 1523 1517 1516 1518 1518 1520 1520 1519 1519 1518 1516 1516 1517 1517 1518 1518 1518 1517 1517 1518 1518 1517 1516 1515 1512 1510 1509 1506 1503 1499 1493 1491 1497 1495 1489 1487 1488 1487 1488 1490 1491 1496 1501 1503 1504 1503 1504 1504 1503 1498 1487 1480 1488 1493 1486 1484 1487 1486 1486 1492 1495 1495 1493 1494 1495 1493 1493
1558 1556 1555 1553 1552 1550 1549 1547 1546 1544 1542 1541 1539 1538 1537 1535 1533 1532 1532 1532 1528 1523 1521 1524 1524 1523 1522 1521 1521 1519 1516 1514 1515 1516 1516 1519 1519 1518 1518 1519 1518 1517 1516 1515 1513 1510 1509 1508 1508 1506 1499 1496 1502 1503 1495 1492 1490 1485 1487 1492 1493 1494 1498 1504 1509 1507 1503 1506 1508 1503 1500 1504 1508 1503 1494 1492 1493 1489 1487 1492 1500 1502 1499 1498 1498 1496 1496
1558 1557 1556 1554 1552 1551 1550 1548 1547 1545 1544 1543 1541 1539 1538 1536 1535 1534 1534 1534 1532 1528 1527 1528 1528 1526 1524 1522 1521 1521 1520 1518 1518 1517 1515 1517 1518 1518 1519 1519 1518 1517 1516 1514 1512 1510 1510 1510 1510 1508 1503 1500 1506 1509 1506 1504 1500 1492 1490 1493 1494 1496 1497 1501 1509 1511 1510 1515 1518 1512 1511 1516 1514 1506 1498 1496 1496 1492 1489 1495 1505 1507 1503 1502 1501 1499 1498
1559 1557 1556 1555 1553 1552 1551 1550 1548 1547 1545 1544 1542 1541 1539 1538 1537 1535 1535 1535 1533 1530 1530 1531 1530 1527 1526 1524 1523 1524 1524 1523 1522 1521 1518 1517 1517 1518 1519 1519 1517 1517 1516 1514 1512 1510 1510 1510 1506 1502 1501 1502 1507 1512 1512 1512 1511 1504 1499 1498 1499 1501 1501 1503 1510 1513 1514 1519 1519 1513 1515 1518 1513 1505 1502 1501 1498 1495 1498 1509 1515 1510 1505 1505 1503 1501 1500
1559 1558 1556 1555 1554 1553 1551 1551 1549 1548 1547 1545 1543 1542 1541 1540 1539 1537 1536 1536 1534 1532 1531 1533 1532 1530 1530 1530 1528 1527 1528 1526 1524 1523 1519 1516 1517 1519 1520 1519 1518 1517 1515 1514 1513 1512 1511 1509 1504 1502 1503 1502 1506 1514 1517 1517 1517 1513 1508 1507 1508 1506 1504 1507 1510 1509 1510 1515 1517 1517 1520 1519 1511 1506 1506 1504 1500 1502 1512 1519 1517 1511 1508 1507 1504 1503 1502
1559 1558 1557 1555 1555 1553 1552 1551 1550 1548 1548 1546 1544 1543 1542 1541 1540 1538 1537 1537 1536 1534 1533 1534 1534 1533 1532 1532 1530 1529 1529 1528 1527 1526 1522 1519 1521 1522 1520 1519 1519 1518 1515 1513 1513 1512 1512 1509 1506 1507 1508 1505 1508 1517 1520 1517 1516 1513 1512 1515 1515 1514 1512 1512 1512 1511 1511 1515 1519 1523 1525 1519 1512 1509 1508 1505 1506 1514 1519 1517 1513 1511 1510 1507 1506 1505 1503
1559 1558 1557 1556 1555 1554 1553 1552 1551 1549 1548 1547 1545 1544 1543 1543 1541 1540 1539 1538 1537 1536 1535 1535 1535 1535 1534 1533 1533 1532 1531 1530 1529 1528 1526 1525 1525 1523 1521 1521 1522 1520 1517 1518 1517 1515 1517 1516 1512 1512 1513 1510 1512 1517 1518 1514 1512 1511 1514 1518 1517 1517 1520 1519 1515 1515 1516 1517 1522 1529 1530 1520 1511 1510 1510 1509 1512 1516 1515 1511 1510 1511 1509 1508 1507 1505 1503
1560 1558 1558 1556 1555 1554 1553 1552 1551 1550 1549 1548 1547 1545 1545 1544 1543 1541 1540 1539 1539 1537 1536 1536 1536 1536 1535 1534 1534 1534 1533 1533 1533 1531 1530 1529 1527 1526 1526 1526 1525 1523 1522 1524 1522 1518 1518 1520 1518 1517 1515 1512 1512 1516 1517 1517 1516 1512 1513 1516 1516 1517 1520 1521 1519 1519 1524 1525 1524 1525 1523 1515 1510 1512 1513 1512 1513 1512 1510 1510 1510 1509 1508 1508 1507 1505 1504
1560 1558 1558 1557 1556 1555 1554 1553 1552 1551 1550 1549 1547 1546 1546 1545 1543 1542 1540 1540 1539 1538 1536 1536 1536 1536 1536 1535 1534 1534 1534 1534 1534 1533 1533 1532 1529 1528 1528 1526 1526 1527 1527 1528 1526 1521 1520 1521 1520 1519 1518 1515 1516 1518 1519 1520 1520 1515 1511 1514 1518 1517 1517 1518 1519 1517 1520 1522 1518 1514 1513 1512 1512 1512 1512 1511 1511 1510 1510 1510 1509 1508 1508 1508 1506 1505 1504
1560 1559 1558 1557 1556 1555 1554 1553 1552 1551 1550 1550 1548 1547 1546 1545 1543 1542 1541 1540 1540 1538 1537 1537 1537 1536 1535 1535 1534 1534 1533 1534 1534 1534 1534 1534 1531 1529 1528 1528 1528 1529 1530 1530 1530 1527 1525 1524 1521 1521 1522 1522 1522 1523 1521 1520 1519 1516 1513 1514 1514 1513 1512 1515 1518 1515 1514 1515 1513 1511 1513 1513 1512 1512 1512 1512 1512 1511 1510 1510 1509 1509 1508 1507 1506 1505 1503
1560 1559 1558 1557 1556 1555 1554 1553 1552 1552 1550 1550 1549 1547 1546 1545 1544 1542 1541 1540 1540 1538 1536 1535 1535 1536 1536 1535 1535 1535 1534 1534 1534 1534 1534 1534 1533 1530 1530 1531 1531 1530 1531 1533 1532 1530 1529 1527 1524 1524 1525 1524 1524 1524 1524 1522 1519 1518 1518 1515 1513 1513 1515 1515 1514 1515 1517 1517 1514 1513 1515 1514 1512 1513 1513 1512 1512 1512 1511 1510 1510 1509 1508 1507 1505 1504 1502
1560 1559 1558 1557 1556 1555 1555 1553 1553 1552 1551 1550 1550 1548 1547 1547 1546 1544 1542 1542 1542 1540 1536 1533 1533 1536 1536 1535 1535 1535 1535 1534 1534 1534 1534 1535 1535 1534 1533 1534 1534 1532 1533 1534 1532 1531 1531 1528 1526 1527 1526 1525 1525 1524 1523 1524 1522 1520 1521 1519 1516 1516 1517 1517 1516 1515 1516 1517 1515 1515 1516 1516 1514 1514 1513 1512 1512 1512 1510 1510 1509 1508 1507 1506 1504 1503 1502
1559 1558 1558 1557 1556 1555 1555 1554 1553 1552 1551 1550 1550 1549 1548 1548 1547 1545 1544 1543 1541 1540 1537 1533 1533 1535 1536 1535 1535 1535 1534 1534 1534 1534 1535 1535 1535 1535 1535 1535 1535 1535 1534 1534 1533 1532 1531 1529 1529 1529 1527 1525 1526 1524 1523 1523 1522 1521 1523 1522 1517 1515 1519 1522 1522 1519 1516 1515 1516 1516 1516 1515 1514 1514 1514 1513 1512 1511 1509 1509 1508 1507 1506 1505 1503 1502 1501
1559 1558 1557 1557 1556 1555 1554 1554 1553 1552 1551 1550 1550 1549 1548 1548 1547 1546 1545 1544 1542 1541 1538 1535 1534 1535 1535 1535 1535 1535 1534 1534 1534 1534 1535 1535 1535 1536 1536 1535 1536 1536 1535 1533 1531 1530 1530 1529 1529 1529 1528 1526 1525 1524 1523 1523 1521 1521 1522 1521 1518 1521 1525 1525 1524 1524 1522 1520 1519 1519 1519 1517 1514 1513 1513 1512 1511 1510 1508 1507 1506 1505 1504 1504 1503 1502 1500
1559 1558 1557 1556 1555 1555 1554 1554 1553 1552 1551 1550 1549 1548 1548 1549 1549 1547 1546 1546 1546 1544 1542 1539 1537 1535 1535 1534 1535 1535 1535 1535 1534 1534 1535 1535 1535 1535 1536 1536 1536 1536 1534 1532 1531 1531 1531 1530 1528 1527 1527 1527 1526 1525 1524 1523 1521 1521 1521 1521 1523 1527 1527 1524 1523 1525 1524 1520 1519 1519 1520 1517 1514 1512 1512 1510 1509 1508 1506 1505 1504 1502 1501 1501 1501 1501 1500
1558 1557 1557 1556 1555 1554 1554 1553 1553 1552 1551 1551 1549 1549 1549 1551 1550 1548 1547 1547 1546 1545 1544 1541 1537 1534 1534 1534 1535 1535 1534 1534 1535 1534 1534 1534 1535 1535 1535 1536 1536 1535 1534 1532 1531 1531 1530 1529 1528 1527 1527 1528 1527 1526 1524 1523 1523 1523 1524 1524 1525 1526 1524 1523 1523 1522 1520 1519 1519 1519 1518 1515 1513 1511 1510 1508 1507 1506 1505 1503 1502 1500 1499 1498 1498 1499 1498
1558 1557 1556 1555 1555 1554 1554 1553 1553 1552 1551 1551 1550 1549 1550 1550 1549 1548 1547 1546 1545 1545 1544 1542 1537 1534 1534 1534 1534 1534 1534 1534 1534 1534 1533 1534 1534 1534 1535 1535 1535 1535 1534 1533 1532 1531 1529 1528 1528 1527 1527 1527 1527 1526 1525 1524 1524 1525 1525 1525 1525 1525 1524 1523 1522 1521 1520 1519 1518 1517 1516 1514 1511 1509 1508 1506 1505 1504 1503 1501 1500 1499 1498 1496 1496 1496 1496
1558 1557 1556 1555 1555 1554 1553 1553 1552 1552 1551 1551 1550 1549 1549 1549 1548 1548 1547 1546 1545 1545 1545 1543 1538 1533 1532 1533 1533 1533 1533 1533 1532 1532 1532 1532 1532 1533 1533 1534 1533 1533 1533 1532 1531 1530 1530 1529 1528 1527 1526 1527 1527 1526 1525 1524 1524 1526 1526 1524 1524 1524 1523 1522 1521 1520 1519 1518 1516 1515 1513 1511 1509 1508 1506 1505 1503 1502 1501 1499 1497 1496 1495 1494 1493 1492 1492
1557 1556 1555 1555 1554 1554 1553 1552 1552 1552 1551 1550 1550 1550 1549 1549 1549 1548 1546 1545 1545 1545 1545 1544 1539 1531 1528 1530 1532 1532 1532 1532 1532 1531 1531 1531 1531 1531 1532 1532 1532 1531 1531 1531 1530 1529 1528 1528 1527 1526 1526 1526 1526 1525 1524 1524 1527 1530 1528 1525 1523 1523 1522 1521 1520 1519 1517 1516 1515 1512 1510 1508 1508 1507 1504 1502 1501 1500 1498 1496 1494 1493 1492 1491 1490 1489 1488
1557 1556 1555 1554 1553 1553 1553 1552 1552 1552 1551 1550 1550 1549 1549 1549 1549 1548 1546 1545 1545 1545 1545 1545 1540 1532 1527 1528 1530 1531 1531 1531 1531 1531 1530 1530 1531 1531 1531 1530 1530 1530 1529 1528 1528 1527 1527 1526 1525 1525 1525 1525 1525 1525 1524 1524 1527 1529 1527 1525 1523 1522 1520 1519 1519 1518 1517 1516 1514 1512 1510 1508 1506 1505 1503 1501 1499 1497 1495 1494 1492 1490 1489 1488 1486 1485 1484
1557 1556 1555 1554 1553 1553 1552 1552 1552 1552 1552 1551 1551 1550 1549 1549 1548 1547 1546 1545 1544 1544 1544 1543 1539 1533 1528 1526 1527 1529 1531 1531 1530 1529 1529 1529 1530 1530 1529 1529 1529 1528 1528 1527 1526 1525 1524 1524 1524 1524 1523 1523 1525 1525 1524 1523 1523 1525 1524 1523 1522 1521 1519 1518 1518 1517 1516 1515 1513 1512 1510 1507 1504 1503 1501 1499 1496 1495 1493 1491 1489 1487 1486 1485 1483 1482 1481
1556 1556 1555 1554 1553 1553 1552 1552 1553 1552 1552 1552 1551 1550 1550 1549 1548 1547 1546 1545 1545 1544 1543 1540 1538 1533 1529 1526 1527 1529 1531 1530 1529 1530 1530 1529 1529 1529 1528 1528 1528 1527 1526 1525 1524 1523 1522 1523 1524 1524 1523 1524 1526 1525 1522 1521 1522 1522 1522 1521 1520 1519 1518 1517 1517 1516 1515 1514 1512 1510 1508 1506 1504 1501 1499 1496 1494 1492 1490 1489 1487 1485 1483 1482 1481 1480 1479
1556 1556 1554 1554 1553 1553 1553 1553 1553 1552 1552 1552 1551 1550 1550 1549 1547 1546 1545 1545 1546 1545 1543 1540 1536 1532 1529 1528 1528 1530 1531 1529 1529 1530 1529 1528 1527 1527 1527 1527 1526 1525 1524 1523 1522 1521 1520 1521 1523 1523 1523 1525 1527 1524 1521 1521 1522 1521 1520 1520 1519 1519 1519 1518 1516 1515 1513 1512 1511 1509 1507 1504 1502 1499 1497 1494 1492 1490 1488 1486 1485 1483 1481 1479 1478 1477 1476
1556 1555 1554 1554 1553 1553 1553 1553 1553 1553 1553 1552 1551 1550 1549 1548 1547 1546 1545 1545 1545 1544 1544 1543 1538 1533 1531 1530 1530 1531 1531 1529 1527 1527 1527 1526 1526 1525 1526 1526 1524 1523 1523 1521 1519 1518 1520 1521 1521 1521 1519 1521 1522 1522 1521 1522 1521 1520 1520 1520 1519 1518 1518 1517 1516 1514 1512 1510 1508 1506 1504 1502 1500 1498 1495 1492 1489 1488 1486 1483 1482 1481 1479 1477 1476 1475 1474
1555 1555 1554 1554 1553 1553 1553 1553 1553 1552 1552 1552 1551 1549 1548 1547 1547 1546 1545 1545 1545 1544 1543 1543 1539 1535 1533 1532 1531 1531 1531 1529 1527 1526 1526 1527 1526 1524 1524 1525 1524 1524 1522 1519 1516 1516 1518 1518 1518 1517 1515 1516 1518 1520 1520 1521 1520 1520 1520 1519 1518 1518 1517 1516 1515 1513 1510 1508 1506 1504 1501 1499 1497 1495 1493 1490 1487 1485 1483 1481 1480 1478 1477 1475 1474 1473 1471
1555 1555 1554 1554 1554 1554 1553 1553 1552 1552 1552 1551 1550 1549 1547 1546 1545 1544 1543 1544 1544 1543 1542 1540 1538 1536 1535 1533 1532 1532 1532 1531 1529 1527 1527 1528 1528 1526 1524 1523 1523 1523 1522 1518 1515 1516 1517 1516 1517 1518 1516 1515 1518 1520 1520 1519 1520 1519 1519 1518 1518 1517 1517 1515 1514 1512 1510 1508 1506 1503 1501 1499 1496 1493 1491 1488 1485 1482 1480 1479 1477 1475 1474 1473 1471 1470 1469
1555 1555 1555 1555 1554 1554 1553 1552 1551 1552 1551 1551 1550 1548 1546 1544 1542 1541 1541 1541 1540 1539 1539 1538 1537 1536 1537 1536 1534 1533 1533 1533 1532 1530 1530 1530 1529 1528 1527 1524 1523 1524 1523 1518 1514 1514 1515 1516 1518 1520 1518 1516 1518 1519 1519 1519 1519 1519 1518 1518 1517 1517 1515 1514 1513 1511 1509 1507 1504 1502 1500 1497 1495 1492 1489 1486 1483 1480 1478 1476 1474 1472 1471 1470 1469 1468 1467
1555 1555 1555 1554 1554 1554 1554 1552 1552 1552 1551 1550 1548 1547 1545 1543 1539 1537 1538 1538 1536 1535 1536 1536 1535 1535 1536 1537 1535 1534 1533 1533 1534 1534 1533 1531 1528 1529 1529 1525 1522 1523 1522 1516 1512 1513 1514 1514 1517 1518 1517 1516 1517 1518 1518 1518 1518 1518 1517 1517 1516 1515 1514 1513 1511 1509 1507 1505 1502 1500 1497 1495 1492 1490 1487 1484 1482 1479 1476 1473 1471 1470 1468 1467 1466 1466 1465
1554 1554 1554 1554 1554 1554 1553 1553 1552 1551 1550 1549 1548 1546 1543 1540 1538 1537 1537 1537 1534 1533 1535 1536 1535 1535 1536 1536 1535 1534 1533 1533 1534 1534 1533 1530 1528 1528 1527 1523 1523 1524 1521 1514 1511 1513 1514 1514 1515 1517 1516 1516 1517 1517 1517 1517 1517 1517 1517 1516 1515 1514 1513 1511 1510 1508 1506 1503 1501 1498 1495 1493 1491 1488 1485 1482 1480 1478 1475 1472 1470 1467 1466 1465 1464 1463 1462
1554 1554 1554 1554 1553 1553 1553 1551 1550 1550 1549 1550 1551 1551 1546 1540 1536 1533 1532 1532 1531 1532 1534 1535 1535 1534 1535 1535 1534 1534 1534 1534 1533 1533 1532 1529 1527 1525 1525 1524 1523 1522 1517 1512 1512 1514 1514 1513 1513 1514 1515 1516 1516 1516 1516 1516 1516 1516 1516 1515 1514 1513 1512 1510 1508 1506 1504 1502 1499 1497 1494 1492 1489 1486 1484 1481 1479 1476 1473 1471 1469 1466 1464 1463 1461 1460 1459
1553 1554 1554 1553 1552 1552 1552 1550 1549 1550 1551 1551 1550 1547 1543 1538 1534 1530 1529 1530 1531 1531 1533 1534 1534 1534 1534 1534 1534 1534 1533 1533 1533 1533 1531 1528 1525 1524 1524 1524 1520 1516 1514 1513 1513 1512 1510 1510 1511 1512 1514 1515 1515 1515 1515 1515 1515 1515 1514 1514 1513 1512 1510 1509 1507 1504 1502 1500 1498 1495 1493 1490 1488 1485 1482 1480 1477 1474 1471 1469 1467 1465 1463 1461 1460 1458 1457
1554 1554 1554 1554 1552 1553 1553 1551 1549 1549 1548 1546 1541 1537 1533 1532 1531 1531 1532 1533 1533 1531 1531 1533 1534 1535 1535 1535 1535 1534 1532 1532 1533 1531 1528 1526 1526 1525 1523 1520 1516 1515 1516 1516 1513 1510 1511 1512 1513 1514 1514 1514 1514 1514 1514 1514 1514 1514 1513 1512 1511 1510 1509 1507 1505 1503 1500 1498 1496 1494 1492 1490 1487 1485 1482 1479 1477 1474 1471 1468 1466 1464 1462 1460 1459 1457 1456
1554 1553 1553 1554 1553 1552 1552 1551 1548 1544 1540 1536 1533 1532 1531 1531 1532 1533 1535 1535 1534 1533 1532 1533 1535 1537 1537 1536 1534 1533 1533 1533 1532 1529 1527 1529 1529 1525 1521 1518 1518 1519 1519 1516 1513 1514 1517 1517 1514 1514 1515 1515 1514 1514 1514 1514 1513 1513 1512 1511 1510 1509 1507 1506 1504 1502 1499 1497 1495 1493 1491 1488 1486 1484 1482 1479 1477 1474 1471 1468 1465 1463 1461 1460 1458 1456 1455
1553 1552 1552 1552 1552 1550 1548 1546 1543 1538 1534 1532 1531 1531 1532 1534 1534 1534 1535 1536 1535 1535 1535 1535 1536 1537 1537 1536 1535 1533 1532 1531 1531 1529 1528 1529 1527 1522 1519 1520 1520 1520 1519 1516 1514 1515 1515 1514 1513 1514 1514 1514 1513 1513 1513 1513 1512 1512 1511 1510 1509 1507 1506 1504 1502 1500 1498 1496 1494 1492 1490 1488 1486 1484 1482 1479 1476 1473 1470 1468 1465 1463 1461 1460 1458 1456 1455
1552 1551 1551 1551 1549 1545 1542 1539 1536 1533 1531 1531 1532 1532 1533 1534 1535 1534 1535 1535 1536 1537 1538 1538 1537 1537 1536 1536 1536 1534 1531 1530 1531 1529 1526 1525 1525 1524 1524 1524 1520 1515 1513 1513 1513 1513 1512 1512 1513 1514 1514 1513 1513 1513 1512 1512 1512 1511 1510 1509 1507 1505 1504 1503 1501 1499 1497 1495 1493 1491 1489 1487 1486 1484 1482 1479 1476 1473 1470 1468 1466 1464 1462 1460 1458 1457 1455
1550 1549 1549 1547 1544 1539 1535 1534 1534 1532 1530 1531 1532 1533 1533 1534 1534 1534 1535 1536 1537 1538 1539 1539 1540 1540 1537 1534 1533 1532 1529 1529 1529 1527 1525 1525 1526 1526 1525 1524 1519 1513 1509 1509 1510 1511 1512 1512 1513 1513 1513 1513 1513 1513 1512 1511 1511 1509 1508 1507 1506 1504 1502 1501 1499 1497 1496 1494 1492 1490 1489 1487 1485 1483 1481 1478 1475 1472 1471 1469 1466 1464 1462 1460 1458 1456 1454
1549 1548 1546 1544 1540 1536 1533 1533 1532 1531 1531 1531 1532 1533 1533 1533 1533 1534 1535 1536 1537 1538 1539 1539 1540 1539 1536 1535 1535 1534 1531 1527 1526 1526 1526 1524 1522 1520 1521 1520 1515 1510 1507 1507 1509 1512 1513 1513 1512 1513 1512 1512 1511 1511 1511 1510 1509 1508 1507 1505 1504 1502 1501 1499 1498 1496 1494 1493 1491 1490 1488 1486 1484 1482 1480 1478 1474 1472 1471 1469 1467 1465 1463 1460 1458 1456 1454
1548 1547 1544 1542 1540 1537 1535 1534 1533 1533 1532 1533 1533 1533 1533 1534 1534 1534 1535 1537 1537 1537 1537 1537 1537 1536 1536 1538 1539 1536 1531 1527 1525 1525 1524 1521 1518 1518 1520 1518 1512 1507 1507 1509 1510 1511 1512 1512 1511 1511 1511 1510 1510 1510 1509 1508 1507 1506 1505 1504 1502 1500 1499 1498 1496 1495 1493 1491 1490 1488 1487 1485 1483 1482 1480 1478 1475 1473 1471 1470 1467 1465 1463 1460 1458 1456 1454
1546 1544 1542 1540 1539 1537 1536 1535 1534 1534 1534 1534 1533 1533 1533 1534 1534 1534 1535 1536 1536 1535 1534 1534 1534 1534 1535 1536 1535 1532 1530 1528 1526 1524 1521 1518 1515 1515 1516 1513 1510 1509 1510 1510 1510 1510 1511 1511 1510 1510 1509 1509 1509 1508 1507 1507 1506 1505 1503 1502 1500 1499 1497 1496 1495 1493 1491 1490 1488 1487 1485 1483 1482 1481 1479 1477 1475 1473 1471 1469 1467 1465 1463 1461 1459 1458 1456